Skip Page Navigation
NASA JPL Caltech
NASA Logo - Jet Propulsion Laboratory + View the NASA Portal
+ Center for Near-Earth Object Studies
JPL Home Earth Solar System Stars & Galaxies Technology
JPL Solar System Dynamics
BODIES ORBITS EPHEMERIDES TOOLS PHYSICAL DATA DISCOVERY FAQ SITE MAP
IMPORTANT: The SSD Announcement email list is now available. Major changes are coming in the near future, including possible hostname and/or URL changes. To be notified of such changes, subscribe to this email list.

Please visit this page for more details.


JPL Small-Body Database Browser
Search: [ help ]  
214919 (2007 TG363)
Classification: Main-belt Asteroid          SPK-ID: 2214919
Ephemeris | Orbit Diagram | Orbital Elements | Mission Design | Physical Parameters | Discovery Circumstances ]

[ show orbit diagram ]
Orbital Elements at Epoch 2458600.5 (2019-Apr-27.0) TDB
Reference: JPL 9 (heliocentric ecliptic J2000)
 Element Value Uncertainty (1-sigma)   Units 
e .171971300369181 7.2389e-08  
a 2.186329195696654 1.9667e-08 au
q 1.810343320877595 1.6076e-07 au
i 6.862472245742289 8.2913e-06 deg
node 57.35162608075323 5.5655e-05 deg
peri 300.8846290555321 6.4442e-05 deg
M 239.6131163684641 4.1523e-05 deg
tp 2458995.364808480078
(2020-May-25.86480848)
0.00013996 TDB
period 1180.787530707298
3.23
1.5932e-05
4.362e-08
d
yr
n .3048812683382234 4.1138e-09 deg/d
Q 2.562315070515713 2.3049e-08 au
  Orbit Determination Parameters
   # obs. used (total)      190  
   data-arc span      5263 days (14.41 yr)  
   first obs. used      2004-12-10  
   last obs. used      2019-05-09  
   planetary ephem.      DE431  
   SB-pert. ephem.      SB431-N16  
   condition code      0  
   norm. resid. RMS      .68143  
   source      ORB  
   producer      Otto Matic  
   solution date      2019-May-30 08:21:38  

Additional Information
 Earth MOID = .817918 au 
 Jupiter MOID = 2.89849 au 
 T_jup = 3.648 
[ show covariance matrix ]

Ephemeris | Orbit Diagram | Orbital Elements | Mission Design | Physical Parameters | Discovery Circumstances ]

Physical Parameter Table
Parameter Symbol Value Units Sigma Reference Notes
absolute magnitude H 17.2   n/a MPO437028  

214919 (2007 TG363)          Discovered 2007-Oct-14 by Mt. Lemmon Survey at Mount Lemmon
Reference: 20090509/Numbers.arcLast Updated: 2009-05-11
Ephemeris | Orbit Diagram | Orbital Elements | Mission Design | Physical Parameters | Discovery Circumstances ]
ABOUT SSD CREDITS/AWARDS PRIVACY/COPYRIGHT GLOSSARY LINKS
FirstGov 2019-Dec-06 10:59 UT
(server date/time)  
NASA Home Page
Site Manager:   Ryan S. Park
Webmaster  Alan B. Chamberlin